Time,TemperatureF,DewpointF,PressureIn,WindDirection,WindDirectionDegrees,WindSpeedMPH,WindSpeedGustMPH,Humidity,HourlyPrecipIn,Conditions,Clouds,dailyrainin,SoftwareType,DateUTC
2013-10-17 00:01:00,57.9,55.9,29.93,SSW,195,1.0,1.0,93,0.00,,,0.00,Wunderground v.1.15,2013-10-17 04:01:00,
2013-10-17 00:03:00,57.9,55.9,29.93,South,170,0.0,1.0,93,0.00,,,0.00,Wunderground v.1.15,2013-10-17 04:03:00,
2013-10-17 00:04:00,58.0,56.0,29.93,SSW,212,0.0,1.0,93,0.00,,,0.00,Wunderground v.1.15,2013-10-17 04:04:00,
2013-10-17 00:07:00,57.9,55.9,29.93,SW,219,3.0,4.0,93,0.00,,,0.00,Wunderground v.1.15,2013-10-17 04:07:00,
2013-10-17 00:08:00,57.9,55.9,29.93,SSW,210,2.0,4.0,93,0.00,,,0.00,Wunderground v.1.15,2013-10-17 04:08:00,
2013-10-17 00:13:00,57.9,55.9,29.93,SSW,210,2.0,2.0,93,0.00,,,0.00,Wunderground v.1.15,2013-10-17 04:13:00,
2013-10-17 00:18:00,57.9,56.2,29.93,SW,224,0.0,3.0,94,0.00,,,0.00,Wunderground v.1.15,2013-10-17 04:18:00,
2013-10-17 00:23:00,57.9,56.2,29.93,SW,214,0.0,1.0,94,0.00,,,0.00,Wunderground v.1.15,2013-10-17 04:23:00,
2013-10-17 00:29:00,57.9,56.2,29.93,SW,217,3.0,4.0,94,0.00,,,0.00,Wunderground v.1.15,2013-10-17 04:29:00,
2013-10-17 00:34:00,57.9,56.2,29.92,West,276,1.0,5.0,94,0.00,,,0.00,Wunderground v.1.15,2013-10-17 04:34:00,
2013-10-17 00:40:00,58.0,56.3,29.92,SSW,208,3.0,5.0,94,0.00,,,0.00,Wunderground v.1.15,2013-10-17 04:40:00,
2013-10-17 00:46:00,58.0,56.3,29.92,WSW,243,3.0,4.0,94,0.00,,,0.00,Wunderground v.1.15,2013-10-17 04:46:00,
2013-10-17 00:51:00,58.0,56.3,29.92,West,267,2.0,2.0,94,0.00,,,0.00,Wunderground v.1.15,2013-10-17 04:51:00,
2013-10-17 00:57:00,58.0,56.3,29.92,SSW,210,1.0,2.0,94,0.00,,,0.00,Wunderground v.1.15,2013-10-17 04:57:00,
2013-10-17 01:02:00,58.0,56.3,29.92,SSW,212,2.0,3.0,94,0.00,,,0.00,Wunderground v.1.15,2013-10-17 05:02:00,
2013-10-17 01:08:00,58.0,56.3,29.92,West,281,0.0,3.0,94,0.00,,,0.00,Wunderground v.1.15,2013-10-17 05:08:00,
2013-10-17 01:13:00,58.0,56.6,29.92,SSW,194,0.0,4.0,95,0.00,,,0.00,Wunderground v.1.15,2013-10-17 05:13:00,
2013-10-17 01:19:00,57.9,56.5,29.92,SSW,212,1.0,5.0,95,0.00,,,0.00,Wunderground v.1.15,2013-10-17 05:19:00,
2013-10-17 01:24:00,57.9,56.5,29.91,SSW,204,6.0,6.0,95,0.00,,,0.00,Wunderground v.1.15,2013-10-17 05:24:00,
2013-10-17 01:30:00,57.9,56.5,29.91,SW,225,0.0,6.0,95,0.00,,,0.00,Wunderground v.1.15,2013-10-17 05:30:00,
2013-10-17 01:36:00,57.9,56.5,29.91,SSW,210,0.0,4.0,95,0.00,,,0.00,Wunderground v.1.15,2013-10-17 05:36:00,
2013-10-17 01:41:00,57.9,56.5,29.91,WSW,239,4.0,4.0,95,0.00,,,0.00,Wunderground v.1.15,2013-10-17 05:41:00,
2013-10-17 01:47:00,57.9,56.5,29.91,SW,226,1.0,4.0,95,0.00,,,0.00,Wunderground v.1.15,2013-10-17 05:47:00,
2013-10-17 01:52:00,57.8,56.4,29.91,SSW,198,0.0,1.0,95,0.00,,,0.00,Wunderground v.1.15,2013-10-17 05:52:00,
2013-10-17 01:58:00,57.8,56.4,29.91,SW,221,0.0,2.0,95,0.00,,,0.00,Wunderground v.1.15,2013-10-17 05:58:00,
2013-10-17 02:03:00,57.8,56.4,29.90,SSW,198,1.0,3.0,95,0.00,,,0.00,Wunderground v.1.15,2013-10-17 06:03:00,
2013-10-17 02:08:00,57.8,56.7,29.90,SW,229,2.0,5.0,96,0.00,,,0.00,Wunderground v.1.15,2013-10-17 06:08:00,
2013-10-17 02:13:00,57.8,56.7,29.90,WSW,249,0.0,3.0,96,0.00,,,0.00,Wunderground v.1.15,2013-10-17 06:13:00,
2013-10-17 02:18:00,57.8,56.7,29.90,West,259,1.0,6.0,96,0.00,,,0.00,Wunderground v.1.15,2013-10-17 06:18:00,
2013-10-17 02:23:00,57.8,56.7,29.90,SW,222,0.0,2.0,96,0.00,,,0.00,Wunderground v.1.15,2013-10-17 06:23:00,
2013-10-17 02:28:00,57.7,56.6,29.90,SW,221,1.0,3.0,96,0.00,,,0.00,Wunderground v.1.15,2013-10-17 06:28:00,
2013-10-17 02:33:00,57.8,56.7,29.90,SSW,205,3.0,3.0,96,0.00,,,0.00,Wunderground v.1.15,2013-10-17 06:33:00,
2013-10-17 02:38:00,57.8,56.7,29.90,South,180,0.0,4.0,96,0.00,,,0.00,Wunderground v.1.15,2013-10-17 06:38:00,
2013-10-17 02:43:00,57.8,56.7,29.90,WSW,238,1.0,2.0,96,0.00,,,0.00,Wunderground v.1.15,2013-10-17 06:43:00,
2013-10-17 02:48:00,57.8,56.7,29.90,SW,235,1.0,5.0,96,0.00,,,0.00,Wunderground v.1.15,2013-10-17 06:48:00,
2013-10-17 02:53:00,57.8,56.7,29.90,SW,231,2.0,2.0,96,0.00,,,0.00,Wunderground v.1.15,2013-10-17 06:53:00,
2013-10-17 02:58:00,57.8,56.7,29.90,SSW,208,1.0,2.0,96,0.00,,,0.00,Wunderground v.1.15,2013-10-17 06:58:00,
2013-10-17 03:03:00,57.9,56.8,29.90,SW,236,4.0,4.0,96,0.00,,,0.00,Wunderground v.1.15,2013-10-17 07:03:00,
2013-10-17 03:08:00,57.9,56.8,29.90,WSW,246,2.0,6.0,96,0.00,,,0.00,Wunderground v.1.15,2013-10-17 07:08:00,
2013-10-17 03:13:00,57.9,56.8,29.89,West,262,1.0,3.0,96,0.00,,,0.00,Wunderground v.1.15,2013-10-17 07:13:00,
2013-10-17 03:18:00,57.8,56.7,29.89,SW,230,4.0,6.0,96,0.00,,,0.00,Wunderground v.1.15,2013-10-17 07:18:00,
2013-10-17 03:23:00,57.8,57.0,29.89,SSW,194,1.0,3.0,97,0.00,,,0.00,Wunderground v.1.15,2013-10-17 07:23:00,
2013-10-17 03:28:00,57.8,57.0,29.89,SW,226,3.0,7.0,97,0.00,,,0.00,Wunderground v.1.15,2013-10-17 07:28:00,
2013-10-17 03:33:00,57.7,56.9,29.88,WSW,238,4.0,4.0,97,0.00,,,0.00,Wunderground v.1.15,2013-10-17 07:33:00,
2013-10-17 03:38:00,57.7,56.9,29.88,SW,214,3.0,5.0,97,0.00,,,0.00,Wunderground v.1.15,2013-10-17 07:38:00,
2013-10-17 03:43:00,57.7,56.9,29.88,WSW,241,1.0,5.0,97,0.00,,,0.00,Wunderground v.1.15,2013-10-17 07:43:00,
2013-10-17 03:48:00,57.6,56.8,29.88,SW,226,1.0,5.0,97,0.00,,,0.00,Wunderground v.1.15,2013-10-17 07:48:00,
2013-10-17 03:53:00,57.6,56.8,29.88,SSW,207,2.0,3.0,97,0.00,,,0.00,Wunderground v.1.15,2013-10-17 07:53:00,
2013-10-17 03:58:00,57.6,56.8,29.88,West,276,1.0,5.0,97,0.00,,,0.00,Wunderground v.1.15,2013-10-17 07:58:00,
2013-10-17 04:03:00,57.6,56.8,29.88,SSW,204,3.0,4.0,97,0.00,,,0.00,Wunderground v.1.15,2013-10-17 08:03:00,
2013-10-17 04:08:00,57.6,56.8,29.88,West,270,2.0,5.0,97,0.00,,,0.00,Wunderground v.1.15,2013-10-17 08:08:00,
2013-10-17 04:13:00,57.6,56.8,29.87,SE,145,0.0,6.0,97,0.00,,,0.00,Wunderground v.1.15,2013-10-17 08:13:00,
2013-10-17 04:18:00,57.6,56.8,29.87,South,191,1.0,6.0,97,0.00,,,0.00,Wunderground v.1.15,2013-10-17 08:18:00,
2013-10-17 04:23:00,57.6,56.8,29.87,SW,217,3.0,5.0,97,0.00,,,0.00,Wunderground v.1.15,2013-10-17 08:23:00,
2013-10-17 04:28:00,57.6,56.8,29.87,SW,230,3.0,5.0,97,0.00,,,0.00,Wunderground v.1.15,2013-10-17 08:28:00,
2013-10-17 04:33:00,57.6,56.8,29.87,SSW,201,4.0,7.0,97,0.00,,,0.00,Wunderground v.1.15,2013-10-17 08:33:00,
2013-10-17 04:38:00,57.6,56.8,29.88,SSW,211,1.0,7.0,97,0.00,,,0.00,Wunderground v.1.15,2013-10-17 08:38:00,
2013-10-17 04:43:00,57.6,56.8,29.88,SW,218,2.0,4.0,97,0.00,,,0.00,Wunderground v.1.15,2013-10-17 08:43:00,
2013-10-17 04:48:00,57.5,56.7,29.87,SW,222,2.0,4.0,97,0.00,,,0.00,Wunderground v.1.15,2013-10-17 08:48:00,
2013-10-17 04:53:00,57.5,56.7,29.88,SW,226,3.0,5.0,97,0.00,,,0.00,Wunderground v.1.15,2013-10-17 08:53:00,
2013-10-17 04:58:00,57.5,56.9,29.87,SSW,208,0.0,5.0,98,0.00,,,0.00,Wunderground v.1.15,2013-10-17 08:58:00,
2013-10-17 05:03:00,57.5,56.9,29.87,SW,231,0.0,1.0,98,0.00,,,0.00,Wunderground v.1.15,2013-10-17 09:03:00,
2013-10-17 05:08:00,57.5,56.9,29.87,SSW,212,2.0,2.0,98,0.00,,,0.00,Wunderground v.1.15,2013-10-17 09:08:00,
2013-10-17 05:13:00,57.5,56.9,29.87,SW,225,1.0,1.0,98,0.00,,,0.00,Wunderground v.1.15,2013-10-17 09:13:00,
2013-10-17 05:18:00,57.4,56.8,29.87,WSW,240,0.0,2.0,98,0.00,,,0.00,Wunderground v.1.15,2013-10-17 09:18:00,
2013-10-17 05:24:00,57.4,56.8,29.87,SSW,212,1.0,3.0,98,0.00,,,0.00,Wunderground v.1.15,2013-10-17 09:24:00,
2013-10-17 05:29:00,57.4,56.8,29.87,SW,233,1.0,3.0,98,0.00,,,0.00,Wunderground v.1.15,2013-10-17 09:29:00,
2013-10-17 05:34:00,57.4,56.8,29.87,SSW,205,0.0,2.0,98,0.00,,,0.00,Wunderground v.1.15,2013-10-17 09:34:00,
2013-10-17 05:39:00,57.4,56.8,29.87,SW,218,1.0,2.0,98,0.00,,,0.00,Wunderground v.1.15,2013-10-17 09:39:00,
2013-10-17 05:44:00,57.3,56.7,29.87,SSW,212,2.0,2.0,98,0.00,,,0.00,Wunderground v.1.15,2013-10-17 09:44:00,
2013-10-17 05:49:00,57.3,56.7,29.87,SSE,150,1.0,2.0,98,0.00,,,0.00,Wunderground v.1.15,2013-10-17 09:49:00,
2013-10-17 05:54:00,57.3,56.7,29.87,SW,236,1.0,2.0,98,0.00,,,0.00,Wunderground v.1.15,2013-10-17 09:54:00,
2013-10-17 05:59:00,57.2,56.6,29.87,SW,218,0.0,2.0,98,0.00,,,0.00,Wunderground v.1.15,2013-10-17 09:59:00,
2013-10-17 06:04:00,57.2,56.9,29.87,SSW,211,0.0,2.0,99,0.00,,,0.00,Wunderground v.1.15,2013-10-17 10:04:00,
2013-10-17 06:09:00,57.1,56.8,29.87,SW,226,2.0,2.0,99,0.00,,,0.00,Wunderground v.1.15,2013-10-17 10:09:00,
2013-10-17 06:14:00,57.1,56.8,29.87,SSW,210,1.0,1.0,99,0.00,,,0.00,Wunderground v.1.15,2013-10-17 10:14:00,
2013-10-17 06:19:00,57.1,56.8,29.87,SSE,158,1.0,2.0,99,0.00,,,0.00,Wunderground v.1.15,2013-10-17 10:19:00,
2013-10-17 06:24:00,57.1,56.8,29.87,WSW,242,0.0,3.0,99,0.00,,,0.00,Wunderground v.1.15,2013-10-17 10:24:00,
2013-10-17 06:29:00,57.1,56.8,29.87,SSW,205,0.0,3.0,99,0.00,,,0.00,Wunderground v.1.15,2013-10-17 10:29:00,
2013-10-17 06:34:00,57.1,56.8,29.86,SW,233,1.0,1.0,99,0.00,,,0.00,Wunderground v.1.15,2013-10-17 10:34:00,
2013-10-17 06:40:00,57.1,56.8,29.86,SSW,212,0.0,2.0,99,0.00,,,0.00,Wunderground v.1.15,2013-10-17 10:40:00,
2013-10-17 06:45:00,57.1,56.8,29.86,SSE,152,0.0,1.0,99,0.00,,,0.00,Wunderground v.1.15,2013-10-17 10:45:00,
2013-10-17 06:50:00,57.1,56.8,29.86,SSE,166,0.0,1.0,99,0.00,,,0.00,Wunderground v.1.15,2013-10-17 10:50:00,
2013-10-17 06:55:00,57.1,56.8,29.86,SE,127,0.0,0.0,99,0.00,,,0.00,Wunderground v.1.15,2013-10-17 10:55:00,
2013-10-17 07:00:00,57.1,56.8,29.86,ESE,117,1.0,2.0,99,0.00,,,0.00,Wunderground v.1.15,2013-10-17 11:00:00,
2013-10-17 07:05:00,57.1,56.8,29.87,SSE,148,1.0,2.0,99,0.00,,,0.00,Wunderground v.1.15,2013-10-17 11:05:00,
2013-10-17 07:10:00,57.1,56.8,29.87,ESE,113,2.0,2.0,99,0.00,,,0.00,Wunderground v.1.15,2013-10-17 11:10:00,
2013-10-17 07:15:00,57.1,56.8,29.86,ESE,122,2.0,4.0,99,0.00,,,0.00,Wunderground v.1.15,2013-10-17 11:15:00,
2013-10-17 07:20:00,57.1,56.8,29.86,SE,124,1.0,4.0,99,0.00,,,0.00,Wunderground v.1.15,2013-10-17 11:20:00,
2013-10-17 07:25:00,57.0,56.7,29.86,ESE,110,1.0,2.0,99,0.00,,,0.00,Wunderground v.1.15,2013-10-17 11:25:00,
2013-10-17 07:30:00,57.0,56.7,29.85,ESE,122,0.0,3.0,99,0.00,,,0.00,Wunderground v.1.15,2013-10-17 11:30:00,
2013-10-17 07:35:00,57.0,56.7,29.85,ESE,113,0.0,1.0,99,0.00,,,0.00,Wunderground v.1.15,2013-10-17 11:35:00,
2013-10-17 07:40:00,57.1,57.1,29.85,ESE,117,1.0,2.0,100,0.00,,,0.00,Wunderground v.1.15,2013-10-17 11:40:00,
2013-10-17 07:45:00,57.1,57.1,29.86,SE,146,0.0,1.0,100,0.00,,,0.00,Wunderground v.1.15,2013-10-17 11:45:00,
2013-10-17 07:50:00,57.1,57.1,29.86,SE,144,0.0,1.0,100,0.00,,,0.00,Wunderground v.1.15,2013-10-17 11:50:00,
2013-10-17 07:55:00,57.2,57.2,29.86,SE,131,0.0,2.0,100,0.00,,,0.00,Wunderground v.1.15,2013-10-17 11:55:00,
2013-10-17 08:00:00,57.2,57.2,29.86,ESE,115,1.0,2.0,100,0.00,,,0.00,Wunderground v.1.15,2013-10-17 12:00:00,
2013-10-17 08:05:00,57.2,57.2,29.86,SE,127,2.0,3.0,100,0.00,,,0.00,Wunderground v.1.15,2013-10-17 12:05:00,
2013-10-17 08:10:00,57.2,57.2,29.86,ESE,103,1.0,3.0,100,0.00,,,0.00,Wunderground v.1.15,2013-10-17 12:10:00,
2013-10-17 08:15:00,57.2,57.2,29.86,SE,129,2.0,5.0,100,0.00,,,0.00,Wunderground v.1.15,2013-10-17 12:15:00,
2013-10-17 08:20:00,57.3,57.3,29.86,SE,136,2.0,5.0,100,0.00,,,0.00,Wunderground v.1.15,2013-10-17 12:20:00,
2013-10-17 08:25:00,57.3,57.3,29.85,SE,131,3.0,4.0,100,0.00,,,0.00,Wunderground v.1.15,2013-10-17 12:25:00,
2013-10-17 08:31:00,57.3,57.3,29.86,SE,125,1.0,4.0,100,0.00,,,0.01,Wunderground v.1.15,2013-10-17 12:31:00,
2013-10-17 08:36:00,57.4,57.4,29.85,SE,136,3.0,3.0,100,0.00,,,0.01,Wunderground v.1.15,2013-10-17 12:36:00,
2013-10-17 08:41:00,57.4,57.4,29.86,SE,131,3.0,5.0,100,0.00,,,0.01,Wunderground v.1.15,2013-10-17 12:41:00,
2013-10-17 08:46:00,57.4,57.4,29.86,ESE,117,3.0,5.0,100,0.00,,,0.01,Wunderground v.1.15,2013-10-17 12:46:00,
2013-10-17 08:51:00,57.3,57.3,29.86,SE,131,3.0,5.0,100,0.00,,,0.01,Wunderground v.1.15,2013-10-17 12:51:00,
2013-10-17 08:56:00,57.4,57.4,29.86,ESE,108,4.0,4.0,100,0.00,,,0.01,Wunderground v.1.15,2013-10-17 12:56:00,
2013-10-17 09:01:00,57.4,57.4,29.86,ESE,106,3.0,4.0,100,0.00,,,0.01,Wunderground v.1.15,2013-10-17 13:01:00,
2013-10-17 09:06:00,57.4,57.4,29.86,SE,134,3.0,5.0,100,0.00,,,0.01,Wunderground v.1.15,2013-10-17 13:06:00,
2013-10-17 09:11:00,57.4,57.4,29.85,SE,131,4.0,4.0,100,0.00,,,0.01,Wunderground v.1.15,2013-10-17 13:11:00,
2013-10-17 09:16:00,57.5,57.5,29.85,ESE,113,2.0,5.0,100,0.00,,,0.01,Wunderground v.1.15,2013-10-17 13:16:00,
2013-10-17 09:21:00,57.5,57.5,29.85,SE,145,2.0,4.0,100,0.00,,,0.01,Wunderground v.1.15,2013-10-17 13:21:00,
2013-10-17 09:26:00,57.5,57.5,29.85,SE,132,2.0,7.0,100,0.00,,,0.01,Wunderground v.1.15,2013-10-17 13:26:00,
2013-10-17 09:31:00,57.4,57.4,29.85,SSE,158,3.0,5.0,100,0.00,,,0.01,Wunderground v.1.15,2013-10-17 13:31:00,
2013-10-17 09:36:00,57.5,57.5,29.85,ESE,120,2.0,6.0,100,0.00,,,0.01,Wunderground v.1.15,2013-10-17 13:36:00,
2013-10-17 09:41:00,57.6,57.6,29.85,SE,124,5.0,5.0,100,0.00,,,0.01,Wunderground v.1.15,2013-10-17 13:41:00,
2013-10-17 09:46:00,57.6,57.6,29.85,ESE,121,3.0,5.0,100,0.00,,,0.01,Wunderground v.1.15,2013-10-17 13:46:00,
2013-10-17 09:51:00,57.7,57.7,29.85,ESE,108,2.0,4.0,100,0.00,,,0.01,Wunderground v.1.15,2013-10-17 13:51:00,
2013-10-17 09:56:00,57.8,57.8,29.85,ESE,122,4.0,6.0,100,0.00,,,0.01,Wunderground v.1.15,2013-10-17 13:56:00,
2013-10-17 10:01:00,57.8,57.8,29.85,SE,143,3.0,5.0,100,0.00,,,0.01,Wunderground v.1.15,2013-10-17 14:01:00,
2013-10-17 10:06:00,58.0,58.0,29.85,SE,128,4.0,6.0,100,0.00,,,0.01,Wunderground v.1.15,2013-10-17 14:06:00,
2013-10-17 10:11:00,58.0,57.7,29.85,SE,135,3.0,4.0,99,0.00,,,0.01,Wunderground v.1.15,2013-10-17 14:11:00,
2013-10-17 10:16:00,58.2,57.9,29.85,ESE,118,3.0,6.0,99,0.00,,,0.01,Wunderground v.1.15,2013-10-17 14:16:00,
2013-10-17 10:21:00,58.3,58.0,29.85,SE,136,5.0,7.0,99,0.00,,,0.01,Wunderground v.1.15,2013-10-17 14:21:00,
2013-10-17 10:26:00,58.5,58.2,29.85,SE,142,3.0,7.0,99,0.00,,,0.01,Wunderground v.1.15,2013-10-17 14:26:00,
2013-10-17 10:31:00,58.6,58.3,29.85,SE,124,2.0,4.0,99,0.00,,,0.02,Wunderground v.1.15,2013-10-17 14:31:00,
2013-10-17 10:36:00,58.8,58.5,29.85,ESE,104,4.0,7.0,99,0.00,,,0.02,Wunderground v.1.15,2013-10-17 14:36:00,
2013-10-17 10:41:00,58.9,58.6,29.84,SE,132,3.0,4.0,99,0.00,,,0.02,Wunderground v.1.15,2013-10-17 14:41:00,
2013-10-17 10:46:00,58.9,58.3,29.84,ESE,115,5.0,8.0,98,0.04,,,0.03,Wunderground v.1.15,2013-10-17 14:46:00,
2013-10-17 10:51:00,59.1,58.8,29.84,SE,136,3.0,6.0,99,0.04,,,0.03,Wunderground v.1.15,2013-10-17 14:51:00,
2013-10-17 10:56:00,59.0,58.4,29.84,SE,124,8.0,10.0,98,0.04,,,0.03,Wunderground v.1.15,2013-10-17 14:56:00,
2013-10-17 11:01:00,59.0,58.4,29.84,ESE,110,3.0,7.0,98,0.04,,,0.03,Wunderground v.1.15,2013-10-17 15:01:00,
2013-10-17 11:06:00,59.1,58.5,29.83,SSE,158,1.0,7.0,98,0.00,,,0.03,Wunderground v.1.15,2013-10-17 15:06:00,
2013-10-17 11:11:00,59.2,58.6,29.83,SE,146,2.0,3.0,98,0.00,,,0.03,Wunderground v.1.15,2013-10-17 15:11:00,
2013-10-17 11:16:00,59.4,58.8,29.84,SW,218,2.0,7.0,98,0.00,,,0.03,Wunderground v.1.15,2013-10-17 15:16:00,
2013-10-17 11:21:00,59.5,58.6,29.83,East,99,1.0,3.0,97,0.00,,,0.03,Wunderground v.1.15,2013-10-17 15:21:00,
2013-10-17 11:26:00,59.4,58.5,29.83,SE,134,0.0,6.0,97,0.00,,,0.03,Wunderground v.1.15,2013-10-17 15:26:00,
2013-10-17 11:31:00,59.4,58.5,29.83,ESE,106,3.0,5.0,97,0.00,,,0.03,Wunderground v.1.15,2013-10-17 15:31:00,
2013-10-17 11:36:00,59.4,58.5,29.83,SE,132,2.0,6.0,97,0.00,,,0.03,Wunderground v.1.15,2013-10-17 15:36:00,
2013-10-17 11:41:00,59.5,58.9,29.83,ESE,122,2.0,3.0,98,0.00,,,0.03,Wunderground v.1.15,2013-10-17 15:41:00,
2013-10-17 11:46:00,59.6,58.7,29.83,SSE,154,3.0,5.0,97,0.00,,,0.03,Wunderground v.1.15,2013-10-17 15:46:00,
2013-10-17 11:51:00,59.5,58.6,29.83,SSW,212,4.0,4.0,97,0.00,,,0.03,Wunderground v.1.15,2013-10-17 15:51:00,
2013-10-17 11:56:00,59.4,58.5,29.83,SSE,162,3.0,4.0,97,0.00,,,0.04,Wunderground v.1.15,2013-10-17 15:56:00,
2013-10-17 12:01:00,59.3,58.7,29.83,SE,134,1.0,3.0,98,0.00,,,0.04,Wunderground v.1.15,2013-10-17 16:01:00,
2013-10-17 12:06:00,59.2,58.6,29.83,SE,135,3.0,5.0,98,0.06,,,0.05,Wunderground v.1.15,2013-10-17 16:06:00,
2013-10-17 12:11:00,59.2,58.6,29.83,SE,131,3.0,4.0,98,0.06,,,0.05,Wunderground v.1.15,2013-10-17 16:11:00,
2013-10-17 12:16:00,59.3,58.7,29.83,South,169,1.0,4.0,98,0.05,,,0.05,Wunderground v.1.15,2013-10-17 16:16:00,
2013-10-17 12:21:00,59.5,58.9,29.83,SSE,160,5.0,5.0,98,0.00,,,0.05,Wunderground v.1.15,2013-10-17 16:21:00,
2013-10-17 12:26:00,59.5,58.9,29.82,SE,136,2.0,5.0,98,0.00,,,0.05,Wunderground v.1.15,2013-10-17 16:26:00,
2013-10-17 12:31:00,59.7,59.1,29.82,SE,131,5.0,5.0,98,0.22,,,0.07,Wunderground v.1.15,2013-10-17 16:31:00,
2013-10-17 12:36:00,59.9,59.3,29.82,ESE,107,1.0,8.0,98,0.08,,,0.07,Wunderground v.1.15,2013-10-17 16:36:00,
2013-10-17 12:41:00,60.0,59.4,29.82,SE,140,1.0,3.0,98,0.05,,,0.07,Wunderground v.1.15,2013-10-17 16:41:00,
2013-10-17 12:46:00,60.1,59.5,29.81,SSE,158,2.0,5.0,98,0.00,,,0.07,Wunderground v.1.15,2013-10-17 16:46:00,
2013-10-17 12:51:00,60.3,59.7,29.81,SSE,158,2.0,4.0,98,0.00,,,0.07,Wunderground v.1.15,2013-10-17 16:51:00,
2013-10-17 12:56:00,60.4,59.8,29.81,SSE,150,2.0,6.0,98,0.00,,,0.07,Wunderground v.1.15,2013-10-17 16:56:00,
2013-10-17 13:01:00,60.3,59.7,29.80,SE,131,3.0,5.0,98,0.00,,,0.07,Wunderground v.1.15,2013-10-17 17:01:00,
2013-10-17 13:06:00,60.4,59.8,29.80,ESE,116,3.0,5.0,98,0.00,,,0.07,Wunderground v.1.15,2013-10-17 17:06:00,
2013-10-17 13:11:00,60.3,59.7,29.80,SE,126,2.0,4.0,98,0.00,,,0.07,Wunderground v.1.15,2013-10-17 17:11:00,
2013-10-17 13:16:00,60.4,59.8,29.79,ESE,108,8.0,8.0,98,0.00,,,0.07,Wunderground v.1.15,2013-10-17 17:16:00,
2013-10-17 13:21:00,60.5,59.9,29.79,SE,124,6.0,6.0,98,0.00,,,0.07,Wunderground v.1.15,2013-10-17 17:21:00,
2013-10-17 13:26:00,60.6,60.0,29.78,ESE,107,3.0,7.0,98,0.00,,,0.07,Wunderground v.1.15,2013-10-17 17:26:00,
2013-10-17 13:31:00,60.8,60.2,29.78,ESE,106,4.0,4.0,98,0.00,,,0.07,Wunderground v.1.15,2013-10-17 17:31:00,
2013-10-17 13:36:00,61.0,60.4,29.78,SSE,153,1.0,5.0,98,0.00,,,0.07,Wunderground v.1.15,2013-10-17 17:36:00,
2013-10-17 13:41:00,61.1,60.2,29.78,SE,142,1.0,3.0,97,0.00,,,0.07,Wunderground v.1.15,2013-10-17 17:41:00,
2013-10-17 13:46:00,61.2,60.3,29.78,SSE,150,3.0,7.0,97,0.00,,,0.07,Wunderground v.1.15,2013-10-17 17:46:00,
2013-10-17 13:51:00,61.2,60.1,29.78,SSE,155,1.0,3.0,96,0.00,,,0.07,Wunderground v.1.15,2013-10-17 17:51:00,
2013-10-17 13:56:00,61.1,60.0,29.77,SSE,148,3.0,8.0,96,0.00,,,0.07,Wunderground v.1.15,2013-10-17 17:56:00,
2013-10-17 14:01:00,61.1,60.0,29.77,ESE,122,4.0,4.0,96,0.00,,,0.07,Wunderground v.1.15,2013-10-17 18:01:00,
2013-10-17 14:06:00,61.2,60.1,29.77,SSE,153,1.0,6.0,96,0.00,,,0.07,Wunderground v.1.15,2013-10-17 18:06:00,
2013-10-17 14:11:00,61.3,60.4,29.76,SSE,155,2.0,3.0,97,0.00,,,0.07,Wunderground v.1.15,2013-10-17 18:11:00,
2013-10-17 14:16:00,61.6,60.7,29.76,SW,219,4.0,6.0,97,0.00,,,0.07,Wunderground v.1.15,2013-10-17 18:16:00,
2013-10-17 14:21:00,61.6,60.4,29.76,SSW,195,3.0,4.0,96,0.00,,,0.07,Wunderground v.1.15,2013-10-17 18:21:00,
2013-10-17 14:26:00,61.8,60.6,29.76,WSW,253,2.0,4.0,96,0.00,,,0.07,Wunderground v.1.15,2013-10-17 18:26:00,
2013-10-17 14:31:00,61.9,60.5,29.76,SW,225,7.0,7.0,95,0.00,,,0.07,Wunderground v.1.15,2013-10-17 18:31:00,
2013-10-17 14:36:00,61.9,60.5,29.76,West,260,2.0,8.0,95,0.00,,,0.07,Wunderground v.1.15,2013-10-17 18:36:00,
2013-10-17 14:41:00,61.9,59.9,29.76,South,191,8.0,12.0,93,0.00,,,0.07,Wunderground v.1.15,2013-10-17 18:41:00,
2013-10-17 14:46:00,62.0,60.3,29.75,SSW,206,4.0,12.0,94,0.00,,,0.07,Wunderground v.1.15,2013-10-17 18:46:00,
2013-10-17 14:51:00,61.9,60.2,29.75,SE,135,3.0,5.0,94,0.00,,,0.07,Wunderground v.1.15,2013-10-17 18:51:00,
2013-10-17 14:56:00,61.9,60.5,29.75,SW,233,1.0,6.0,95,0.00,,,0.08,Wunderground v.1.15,2013-10-17 18:56:00,
2013-10-17 15:01:00,61.7,60.3,29.75,SSW,201,1.0,3.0,95,0.00,,,0.08,Wunderground v.1.15,2013-10-17 19:01:00,
2013-10-17 15:06:00,61.6,60.4,29.76,SSE,158,2.0,5.0,96,0.07,,,0.09,Wunderground v.1.15,2013-10-17 19:06:00,
2013-10-17 15:11:00,61.4,60.2,29.76,SW,218,5.0,6.0,96,0.07,,,0.10,Wunderground v.1.15,2013-10-17 19:11:00,
2013-10-17 15:16:00,61.2,60.1,29.75,SSW,210,2.0,9.0,96,0.07,,,0.10,Wunderground v.1.15,2013-10-17 19:16:00,
2013-10-17 15:21:00,61.2,60.3,29.75,SW,231,4.0,7.0,97,0.06,,,0.10,Wunderground v.1.15,2013-10-17 19:21:00,
2013-10-17 15:26:00,61.1,60.2,29.75,SW,215,5.0,7.0,97,0.04,,,0.10,Wunderground v.1.15,2013-10-17 19:26:00,
2013-10-17 15:31:00,61.0,60.1,29.75,SSW,203,3.0,4.0,97,0.00,,,0.10,Wunderground v.1.15,2013-10-17 19:31:00,
2013-10-17 15:36:00,61.0,60.1,29.75,SSW,192,4.0,7.0,97,0.00,,,0.10,Wunderground v.1.15,2013-10-17 19:36:00,
2013-10-17 15:41:00,61.0,60.1,29.75,SW,226,2.0,4.0,97,0.00,,,0.10,Wunderground v.1.15,2013-10-17 19:41:00,
2013-10-17 15:46:00,61.2,60.6,29.74,SSE,155,4.0,12.0,98,0.00,,,0.10,Wunderground v.1.15,2013-10-17 19:46:00,
2013-10-17 15:51:00,61.5,60.6,29.74,ESE,110,6.0,8.0,97,0.00,,,0.10,Wunderground v.1.15,2013-10-17 19:51:00,
2013-10-17 15:56:00,61.7,60.8,29.74,SW,215,4.0,11.0,97,0.00,,,0.10,Wunderground v.1.15,2013-10-17 19:56:00,
2013-10-17 16:01:00,61.7,60.8,29.74,SW,225,2.0,8.0,97,0.00,,,0.10,Wunderground v.1.15,2013-10-17 20:01:00,
2013-10-17 16:06:00,61.7,60.5,29.74,SSW,208,7.0,16.0,96,0.00,,,0.10,Wunderground v.1.15,2013-10-17 20:06:00,
2013-10-17 16:11:00,62.0,60.8,29.74,SSW,207,6.0,10.0,96,0.00,,,0.10,Wunderground v.1.15,2013-10-17 20:11:00,
2013-10-17 16:16:00,62.0,60.6,29.74,SSW,198,5.0,12.0,95,0.00,,,0.10,Wunderground v.1.15,2013-10-17 20:16:00,
2013-10-17 16:21:00,62.1,60.7,29.74,SSW,208,4.0,6.0,95,0.00,,,0.10,Wunderground v.1.15,2013-10-17 20:21:00,
2013-10-17 16:26:00,62.1,60.4,29.74,WSW,249,5.0,10.0,94,0.00,,,0.10,Wunderground v.1.15,2013-10-17 20:26:00,
2013-10-17 16:31:00,62.1,60.1,29.74,SSW,200,10.0,10.0,93,0.00,,,0.10,Wunderground v.1.15,2013-10-17 20:31:00,
2013-10-17 16:36:00,62.1,60.1,29.74,ESE,105,2.0,13.0,93,0.00,,,0.10,Wunderground v.1.15,2013-10-17 20:36:00,
2013-10-17 16:41:00,62.0,60.0,29.74,SSW,207,6.0,9.0,93,0.00,,,0.10,Wunderground v.1.15,2013-10-17 20:41:00,
2013-10-17 16:46:00,61.9,59.9,29.74,West,264,3.0,10.0,93,0.00,,,0.10,Wunderground v.1.15,2013-10-17 20:46:00,
2013-10-17 16:51:00,61.7,59.7,29.74,WSW,242,3.0,5.0,93,0.00,,,0.10,Wunderground v.1.15,2013-10-17 20:51:00,
2013-10-17 16:56:00,61.4,60.0,29.75,WNW,294,3.0,10.0,95,0.27,,,0.15,Wunderground v.1.15,2013-10-17 20:56:00,
2013-10-17 17:01:00,59.6,57.0,29.76,NW,326,7.0,9.0,91,0.23,,,0.19,Wunderground v.1.15,2013-10-17 21:01:00,
2013-10-17 17:06:00,57.4,55.4,29.77,SE,141,2.0,11.0,93,0.12,,,0.20,Wunderground v.1.15,2013-10-17 21:06:00,
2013-10-17 17:11:00,55.9,54.5,29.78,SW,233,3.0,6.0,95,0.08,,,0.20,Wunderground v.1.15,2013-10-17 21:11:00,
2013-10-17 17:16:00,55.2,54.1,29.78,NNW,334,7.0,8.0,96,0.06,,,0.21,Wunderground v.1.15,2013-10-17 21:16:00,
2013-10-17 17:21:00,55.0,54.4,29.78,WSW,248,5.0,8.0,98,0.06,,,0.21,Wunderground v.1.15,2013-10-17 21:21:00,
2013-10-17 17:26:00,54.9,54.3,29.79,WSW,257,4.0,13.0,98,0.05,,,0.21,Wunderground v.1.15,2013-10-17 21:26:00,
2013-10-17 17:31:00,54.7,53.9,29.79,SW,226,7.0,8.0,97,0.00,,,0.21,Wunderground v.1.15,2013-10-17 21:31:00,
2013-10-17 17:36:00,54.6,53.8,29.79,WNW,293,6.0,11.0,97,0.00,,,0.21,Wunderground v.1.15,2013-10-17 21:36:00,
2013-10-17 17:41:00,54.5,53.7,29.79,WSW,249,4.0,6.0,97,0.00,,,0.21,Wunderground v.1.15,2013-10-17 21:41:00,
2013-10-17 17:46:00,54.3,53.7,29.79,WSW,252,5.0,6.0,98,0.00,,,0.21,Wunderground v.1.15,2013-10-17 21:46:00,
2013-10-17 17:51:00,54.1,53.3,29.79,SSW,205,3.0,5.0,97,0.00,,,0.21,Wunderground v.1.15,2013-10-17 21:51:00,
2013-10-17 17:56:00,53.9,53.1,29.80,SW,214,6.0,15.0,97,0.00,,,0.21,Wunderground v.1.15,2013-10-17 21:56:00,
2013-10-17 18:01:00,53.6,52.5,29.80,SW,226,6.0,8.0,96,0.00,,,0.21,Wunderground v.1.15,2013-10-17 22:01:00,
2013-10-17 18:06:00,53.5,52.7,29.80,WSW,245,2.0,9.0,97,0.00,,,0.21,Wunderground v.1.15,2013-10-17 22:06:00,
2013-10-17 18:11:00,53.4,52.6,29.81,West,274,5.0,8.0,97,0.00,,,0.21,Wunderground v.1.15,2013-10-17 22:11:00,
2013-10-17 18:16:00,53.1,52.3,29.81,WSW,250,4.0,9.0,97,0.00,,,0.21,Wunderground v.1.15,2013-10-17 22:16:00,
2013-10-17 18:21:00,52.8,52.0,29.81,SSW,212,1.0,5.0,97,0.00,,,0.21,Wunderground v.1.15,2013-10-17 22:21:00,
2013-10-17 18:26:00,52.6,51.8,29.81,WSW,254,2.0,10.0,97,0.00,,,0.21,Wunderground v.1.15,2013-10-17 22:26:00,
2013-10-17 18:31:00,52.5,51.7,29.82,West,269,11.0,11.0,97,0.00,,,0.21,Wunderground v.1.15,2013-10-17 22:31:00,
2013-10-17 18:36:00,52.4,51.6,29.82,West,274,1.0,11.0,97,0.00,,,0.21,Wunderground v.1.15,2013-10-17 22:36:00,
2013-10-17 18:41:00,52.2,51.4,29.82,WNW,286,4.0,5.0,97,0.00,,,0.21,Wunderground v.1.15,2013-10-17 22:41:00,
2013-10-17 18:46:00,52.0,51.2,29.83,WSW,242,9.0,12.0,97,0.00,,,0.21,Wunderground v.1.15,2013-10-17 22:46:00,
2013-10-17 18:51:00,51.9,51.1,29.83,SW,215,4.0,5.0,97,0.00,,,0.21,Wunderground v.1.15,2013-10-17 22:51:00,
2013-10-17 18:56:00,51.8,51.0,29.83,West,276,2.0,8.0,97,0.00,,,0.21,Wunderground v.1.15,2013-10-17 22:56:00,
2013-10-17 19:01:00,51.7,51.2,29.83,WNW,287,5.0,10.0,98,0.00,,,0.21,Wunderground v.1.15,2013-10-17 23:01:00,
2013-10-17 19:06:00,51.5,51.0,29.84,SSW,198,2.0,12.0,98,0.00,,,0.21,Wunderground v.1.15,2013-10-17 23:06:00,
2013-10-17 19:11:00,51.3,50.8,29.84,West,276,4.0,8.0,98,0.00,,,0.21,Wunderground v.1.15,2013-10-17 23:11:00,
2013-10-17 19:16:00,51.1,50.6,29.84,WNW,298,4.0,12.0,98,0.00,,,0.21,Wunderground v.1.15,2013-10-17 23:16:00,
2013-10-17 19:21:00,51.0,50.5,29.85,WNW,283,4.0,7.0,98,0.00,,,0.21,Wunderground v.1.15,2013-10-17 23:21:00,
2013-10-17 19:26:00,50.8,50.3,29.85,WNW,287,1.0,8.0,98,0.00,,,0.21,Wunderground v.1.15,2013-10-17 23:26:00,
2013-10-17 19:31:00,50.8,50.3,29.85,NW,314,11.0,13.0,98,0.00,,,0.21,Wunderground v.1.15,2013-10-17 23:31:00,
2013-10-17 19:36:00,50.6,50.1,29.85,SSE,160,3.0,13.0,98,0.00,,,0.21,Wunderground v.1.15,2013-10-17 23:36:00,
2013-10-17 19:41:00,50.5,50.2,29.85,SSW,203,3.0,5.0,99,0.00,,,0.21,Wunderground v.1.15,2013-10-17 23:41:00,
2013-10-17 19:46:00,50.5,50.2,29.86,SSW,210,0.0,5.0,99,0.00,,,0.21,Wunderground v.1.15,2013-10-17 23:46:00,
2013-10-17 19:51:00,50.5,50.2,29.86,West,277,4.0,4.0,99,0.00,,,0.21,Wunderground v.1.15,2013-10-17 23:51:00,
2013-10-17 19:56:00,50.5,50.2,29.86,West,268,0.0,5.0,99,0.00,,,0.21,Wunderground v.1.15,2013-10-17 23:56:00,
2013-10-17 20:01:00,50.3,50.0,29.86,West,266,2.0,2.0,99,0.00,,,0.21,Wunderground v.1.15,2013-10-18 00:01:00,
2013-10-17 20:06:00,50.1,49.8,29.86,WSW,240,0.0,6.0,99,0.00,,,0.21,Wunderground v.1.15,2013-10-18 00:06:00,
2013-10-17 20:11:00,49.8,49.5,29.86,NNW,342,3.0,3.0,99,0.00,,,0.22,Wunderground v.1.15,2013-10-18 00:11:00,
2013-10-17 20:16:00,49.7,49.4,29.87,West,266,3.0,7.0,99,0.00,,,0.22,Wunderground v.1.15,2013-10-18 00:16:00,
2013-10-17 20:21:00,49.6,49.3,29.87,West,277,1.0,3.0,99,0.00,,,0.22,Wunderground v.1.15,2013-10-18 00:21:00,
2013-10-17 20:26:00,49.5,49.2,29.87,SSE,167,0.0,5.0,99,0.00,,,0.22,Wunderground v.1.15,2013-10-18 00:26:00,
2013-10-17 20:31:00,49.3,49.0,29.88,NNW,347,3.0,8.0,99,0.00,,,0.22,Wunderground v.1.15,2013-10-18 00:31:00,
2013-10-17 20:36:00,49.1,48.8,29.88,ENE,62,1.0,8.0,99,0.00,,,0.22,Wunderground v.1.15,2013-10-18 00:36:00,
2013-10-17 20:41:00,48.9,48.6,29.88,WNW,300,1.0,3.0,99,0.00,,,0.23,Wunderground v.1.15,2013-10-18 00:41:00,
2013-10-17 20:46:00,48.8,48.5,29.88,West,266,3.0,8.0,99,0.00,,,0.23,Wunderground v.1.15,2013-10-18 00:46:00,
2013-10-17 20:51:00,48.7,48.4,29.88,North,9,2.0,3.0,99,0.00,,,0.23,Wunderground v.1.15,2013-10-18 00:51:00,
2013-10-17 20:56:00,48.5,48.2,29.88,WNW,284,2.0,8.0,99,0.00,,,0.23,Wunderground v.1.15,2013-10-18 00:56:00,
2013-10-17 21:01:00,48.5,48.2,29.89,WNW,300,2.0,4.0,99,0.00,,,0.23,Wunderground v.1.15,2013-10-18 01:01:00,
2013-10-17 21:06:00,48.4,48.1,29.89,West,278,3.0,10.0,99,0.00,,,0.23,Wunderground v.1.15,2013-10-18 01:06:00,
2013-10-17 21:11:00,48.3,48.0,29.89,WSW,253,1.0,3.0,99,0.00,,,0.23,Wunderground v.1.15,2013-10-18 01:11:00,
2013-10-17 21:16:00,48.2,47.9,29.90,SW,218,4.0,7.0,99,0.00,,,0.23,Wunderground v.1.15,2013-10-18 01:16:00,
2013-10-17 21:21:00,48.1,47.8,29.90,WSW,243,2.0,6.0,99,0.00,,,0.23,Wunderground v.1.15,2013-10-18 01:21:00,
2013-10-17 21:26:00,48.0,47.7,29.90,WNW,296,3.0,9.0,99,0.00,,,0.23,Wunderground v.1.15,2013-10-18 01:26:00,
2013-10-17 21:31:00,47.4,46.9,29.90,WNW,302,7.0,8.0,98,0.00,,,0.23,Wunderground v.1.15,2013-10-18 01:31:00,
2013-10-17 21:36:00,46.8,46.3,29.91,West,266,2.0,8.0,98,0.00,,,0.23,Wunderground v.1.15,2013-10-18 01:36:00,
2013-10-17 21:41:00,46.6,46.3,29.91,NNW,345,3.0,3.0,99,0.00,,,0.23,Wunderground v.1.15,2013-10-18 01:41:00,
2013-10-17 21:46:00,46.5,46.2,29.91,North,360,1.0,9.0,99,0.00,,,0.23,Wunderground v.1.15,2013-10-18 01:46:00,
2013-10-17 21:51:00,46.3,46.0,29.91,WSW,257,4.0,11.0,99,0.00,,,0.24,Wunderground v.1.15,2013-10-18 01:51:00,
2013-10-17 21:56:00,46.2,45.9,29.91,WNW,296,1.0,11.0,99,0.00,,,0.24,Wunderground v.1.15,2013-10-18 01:56:00,
2013-10-17 22:01:00,46.1,45.8,29.92,WNW,292,2.0,2.0,99,0.00,,,0.24,Wunderground v.1.15,2013-10-18 02:01:00,
2013-10-17 22:06:00,46.0,45.7,29.92,WSW,245,1.0,8.0,99,0.00,,,0.24,Wunderground v.1.15,2013-10-18 02:06:00,
2013-10-17 22:11:00,45.9,45.6,29.92,WNW,283,1.0,4.0,99,0.00,,,0.24,Wunderground v.1.15,2013-10-18 02:11:00,
2013-10-17 22:16:00,45.7,45.4,29.92,SE,127,0.0,6.0,99,0.00,,,0.24,Wunderground v.1.15,2013-10-18 02:16:00,
2013-10-17 22:21:00,45.5,45.2,29.92,WNW,293,4.0,4.0,99,0.00,,,0.24,Wunderground v.1.15,2013-10-18 02:21:00,
2013-10-17 22:26:00,45.5,45.2,29.92,SW,222,2.0,5.0,99,0.00,,,0.24,Wunderground v.1.15,2013-10-18 02:26:00,
2013-10-17 22:31:00,45.4,45.1,29.92,NNW,346,0.0,2.0,99,0.00,,,0.24,Wunderground v.1.15,2013-10-18 02:31:00,
2013-10-17 22:36:00,45.3,45.0,29.92,WSW,243,3.0,8.0,99,0.00,,,0.24,Wunderground v.1.15,2013-10-18 02:36:00,
2013-10-17 22:41:00,45.3,45.0,29.92,WNW,283,2.0,3.0,99,0.00,,,0.24,Wunderground v.1.15,2013-10-18 02:41:00,
2013-10-17 22:46:00,45.3,45.0,29.92,WSW,252,2.0,4.0,99,0.00,,,0.25,Wunderground v.1.15,2013-10-18 02:46:00,
2013-10-17 22:51:00,45.2,44.9,29.92,WSW,240,1.0,2.0,99,0.00,,,0.25,Wunderground v.1.15,2013-10-18 02:51:00,
2013-10-17 22:56:00,45.2,44.9,29.92,WNW,287,1.0,4.0,99,0.00,,,0.25,Wunderground v.1.15,2013-10-18 02:56:00,
2013-10-17 23:01:00,45.2,44.9,29.92,SW,222,1.0,1.0,99,0.00,,,0.25,Wunderground v.1.15,2013-10-18 03:01:00,
2013-10-17 23:06:00,45.3,45.0,29.92,South,190,0.0,2.0,99,0.00,,,0.25,Wunderground v.1.15,2013-10-18 03:06:00,
2013-10-17 23:11:00,45.2,44.9,29.93,WSW,245,2.0,3.0,99,0.00,,,0.25,Wunderground v.1.15,2013-10-18 03:11:00,
2013-10-17 23:17:00,45.2,44.9,29.92,SW,226,0.0,5.0,99,0.00,,,0.25,Wunderground v.1.15,2013-10-18 03:17:00,
2013-10-17 23:22:00,45.2,44.9,29.93,WSW,250,0.0,1.0,99,0.00,,,0.25,Wunderground v.1.15,2013-10-18 03:22:00,
2013-10-17 23:26:00,45.2,44.9,29.93,SW,221,0.0,2.0,99,0.00,,,0.25,Wunderground v.1.15,2013-10-18 03:26:00,
2013-10-17 23:32:00,45.2,44.9,29.93,SW,226,0.0,2.0,99,0.00,,,0.25,Wunderground v.1.15,2013-10-18 03:32:00,
2013-10-17 23:37:00,45.2,44.9,29.93,WSW,244,0.0,3.0,99,0.00,,,0.25,Wunderground v.1.15,2013-10-18 03:37:00,
2013-10-17 23:42:00,45.2,44.9,29.93,West,276,0.0,1.0,99,0.00,,,0.25,Wunderground v.1.15,2013-10-18 03:42:00,
2013-10-17 23:47:00,45.2,44.9,29.93,West,276,0.0,3.0,99,0.00,,,0.25,Wunderground v.1.15,2013-10-18 03:47:00,
2013-10-17 23:52:00,45.3,45.0,29.93,SW,231,0.0,2.0,99,0.00,,,0.25,Wunderground v.1.15,2013-10-18 03:52:00,
2013-10-17 23:57:00,45.3,45.0,29.93,SSW,212,2.0,2.0,99,0.00,,,0.25,Wunderground v.1.15,2013-10-18 03:57:00,